TimePDT,TemperatureF,Dew PointF,Humidity,Sea Level PressureIn,VisibilityMPH,Wind Direction,Wind SpeedMPH,Gust SpeedMPH,PrecipitationIn,Events,Conditions,WindDirDegrees,DateUTC
12:54 AM,54.0,50.0,86,29.82,10.0,SSE,3.5,-,N/A,,Clear,150,2013-09-19 07:54:00
1:54 AM,50.0,46.9,89,29.82,10.0,Calm,Calm,-,N/A,,Clear,0,2013-09-19 08:54:00
2:54 AM,50.0,46.0,86,29.82,10.0,Calm,Calm,-,N/A,,Clear,0,2013-09-19 09:54:00
3:54 AM,50.0,46.0,86,29.80,10.0,North,4.6,-,N/A,,Clear,10,2013-09-19 10:54:00
4:54 AM,51.1,46.0,83,29.81,10.0,North,4.6,-,N/A,,Clear,350,2013-09-19 11:54:00
5:54 AM,46.9,44.1,90,29.81,10.0,Calm,Calm,-,N/A,,Clear,0,2013-09-19 12:54:00
6:54 AM,46.0,42.1,86,29.82,10.0,Calm,Calm,-,N/A,,Clear,0,2013-09-19 13:54:00
7:54 AM,53.1,46.9,80,29.83,10.0,Calm,Calm,-,N/A,,Clear,0,2013-09-19 14:54:00
8:54 AM,62.1,46.9,58,29.84,10.0,Calm,Calm,-,N/A,,Clear,0,2013-09-19 15:54:00
9:54 AM,66.0,52.0,60,29.84,10.0,West,4.6,-,N/A,,Clear,260,2013-09-19 16:54:00
10:54 AM,70.0,48.0,46,29.83,10.0,Variable,3.5,-,N/A,,Clear,0,2013-09-19 17:54:00
11:23 AM,71.6,48.2,43,29.86,2.5,WSW,5.8,-,N/A,,Haze,250,2013-09-19 18:23:00
11:38 AM,73.4,50.0,44,29.85,10.0,Variable,3.5,-,N/A,,Clear,0,2013-09-19 18:38:00
11:54 AM,73.0,50.0,44,29.82,10.0,Variable,3.5,-,N/A,,Clear,0,2013-09-19 18:54:00
12:54 PM,78.1,48.9,36,29.81,10.0,SSW,6.9,-,N/A,,Clear,200,2013-09-19 19:54:00
1:54 PM,82.0,45.0,27,29.78,10.0,SSW,8.1,-,N/A,,Clear,200,2013-09-19 20:54:00
2:54 PM,86.0,39.9,20,29.75,10.0,SSW,9.2,-,N/A,,Clear,200,2013-09-19 21:54:00
3:54 PM,84.9,48.9,29,29.73,10.0,SSW,12.7,-,N/A,,Clear,210,2013-09-19 22:54:00
4:54 PM,82.9,52.0,34,29.73,10.0,SSW,10.4,-,N/A,,Clear,200,2013-09-19 23:54:00
5:54 PM,81.0,53.1,38,29.71,10.0,SSW,8.1,-,N/A,,Clear,200,2013-09-20 00:54:00
6:54 PM,73.9,55.9,53,29.71,10.0,South,4.6,-,N/A,,Clear,180,2013-09-20 01:54:00
7:54 PM,69.1,44.1,40,29.72,10.0,WSW,9.2,-,N/A,,Clear,240,2013-09-20 02:54:00
8:54 PM,63.0,48.0,58,29.74,10.0,South,3.5,-,N/A,,Clear,170,2013-09-20 03:54:00
9:54 PM,59.0,51.1,75,29.74,10.0,South,6.9,-,N/A,,Clear,180,2013-09-20 04:54:00
10:54 PM,55.9,50.0,80,29.75,10.0,SSW,8.1,-,N/A,,Clear,200,2013-09-20 05:54:00
11:54 PM,52.0,46.0,80,29.76,10.0,Calm,Calm,-,N/A,,Clear,0,2013-09-20 06:54:00